Regional Weather Roundup
Issued by NWS

Home | Current Version | Previous Version | Text Only | Print | Product List | Glossary On
Versions: 1 2 3 4 5 6 7 8 9 10 11 12 13 14 15 16 17 18 19 20 21 22 23 24 25 26 27 28 29 30 31 32 33 34 35 36 37 38 39 40 41 42 43 44 45 46 47 48 49 50
000
ASUS45 KABQ 060701
RWRNM
NEW MEXICO REGIONAL WEATHER ROUNDUP
NATIONAL WEATHER SERVICE ALBUQUERQUE NM
1200 AM MST TUE DEC 06 2016

NOTE: "FAIR" MEANS FEW OR NO CLOUDS BELOW 12,000 FEET AGL WITH NO
       SIGNIFICANT WEATHER OR OBSTRUCTIONS TO VISION.

      THIS PRODUCT IS RELEASED AS TWO VERSIONS.  ONE VERSION NEAR
      THE TOP OF THE HOUR CONTAINING PRELIMINARY DATA FROM ALBUQUERQUE
      AND OTHER STATIONS.  A FINAL VERSION WITH ADDITIONAL DATA IS
      ISSUED ABOUT 10 MINUTES AFTER THE HOUR.

NMZ501-503-504-510>518-060800-
NORTHWEST PLATEAU/NORTHCENTRAL MOUNTAINS

CITY           SKY/WX    TMP DP  RH WIND       PRES   REMARKS
FARMINGTON     FAIR      28  20  71 NE3       29.88S
LOS ALAMOS     FAIR      34  13  41 NW3       29.91F
SANTA FE       FAIR      34  14  43 N6        29.89R WCI  29
TAOS           FAIR      25  10  54 E10       29.90S WCI  15
ANGEL FIRE     FAIR      26  10  52 W12       29.90F WCI  15

$$
NMZ402-403-502-505>509-060800-
WESTCENTRAL MOUNTAINS/SOUTHWEST MOUNTAINS

CITY           SKY/WX    TMP DP  RH WIND       PRES   REMARKS
GALLUP         FAIR      35  18  49 S6        29.94S WCI  30
GRANTS         FAIR      31  19  62 S8        29.95S WCI  23
SILVER CITY    FAIR      32  21  65 NW10      29.98F WCI  23

$$
NMZ407-409-411-412-060800-
SOUTHERN DESERTS

CITY           SKY/WX    TMP DP  RH WIND       PRES   REMARKS
DEMING         FAIR      36  26  67 S5        29.97F WCI  32
LAS CRUCES     FAIR      46  20  36 W20       29.94F
HOLLOMAN AFB   FAIR      38  21  50 SE6       29.94R WCI  33
T OR C         FAIR      43  18  36 NW12      29.92R

$$
NMZ519>523-060800-
CENTRAL VALLEYS/CENTRAL HIGHLANDS

CITY           SKY/WX    TMP DP  RH WIND       PRES   REMARKS
ALBUQUERQUE    MOCLDY    36  16  44 S6        29.91S WCI  31
DOUBLE EAGLE   FAIR      33  17  51 W5        29.92R WCI  28
MORIARTY ARPT  FAIR      31   7  36 E3        29.92R
CLINES CORNERS FAIR      25   9  50 W12       29.90R WCI  14
BELEN          FAIR      34  18  52 SE3       29.92R
SOCORRO        NOT AVBL

$$
NMZ524>526-539-540-060800-
SOUTHCENTRAL MOUNTAINS

CITY           SKY/WX    TMP DP  RH WIND       PRES   REMARKS
RUIDOSO        FAIR      39  16  38 N6        29.95S WCI  35

$$
NMZ527>531-060800-
NORTHEAST HIGHLANDS/NORTHEAST PLAINS

CITY           SKY/WX    TMP DP  RH WIND       PRES   REMARKS
LAS VEGAS      FAIR      28   3  34 SE6       29.87R WCI  22
RATON          FAIR      25  11  55 N15       29.84S WCI  13
CLAYTON        FAIR      26  11  52 N20G31    29.91R WCI  12

$$
NMZ532>537-060800-
EASTCENTRAL PLAINS

CITY           SKY/WX    TMP DP  RH WIND       PRES   REMARKS
TUCUMCARI      FAIR      35   8  32 E10       29.90R WCI  27
CANNON AFB     FAIR      40  23  51 NE24      29.86R WCI  29
CLOVIS AIRPORT FAIR      39  23  52 N24G31    29.86R WCI  28

$$
NMZ028-029-538-060800-
SOUTHEAST PLAINS

CITY           SKY/WX    TMP DP  RH WIND       PRES   REMARKS
ROSWELL        FAIR      51  22  31 NW14      29.82S
ARTESIA        FAIR      45  28  53 NW15      29.84R
CARLSBAD       FAIR      54  26  34 W22       29.81R
HOBBS          FAIR      46  28  49 W13       29.81R


$$



USA.gov is the U.S. government's official web portal to all federal, state and local government web resources and services.